User: anonymous   Login
Location: Unspecified
(0.0000°N, 0.0000°E)
Time: 18:02:53
(UTC+00:00)
Language:

Envisat - Orbit

View from above orbital plane
View from above orbital plane
View from above satellite
View from above satellite

Ground track
Ground track

The orbit data is extracted from the following two-line orbital elements,

1 27386U 02009A   18112.14563649 -.00000022  00000-0  61781-5 0  9991
2 27386  98.1904 148.8298 0001408  91.5158 303.5234 14.37920121845479
Epoch (UTC): 22 April 2018 03:29:42
Eccentricity: 0.0001408
inclination: 98.1904°
perigee height: 764 km
apogee height: 766 km
right ascension of ascending node: 148.8298°
argument of perigee: 91.5158°
revolutions per day: 14.37920121
mean anomaly at epoch: 303.5234°
orbit number at epoch: 84547

The dashed part of the orbit path shows where the satellite is in the earth's shadow,  

DLR